COSMOS 1574

Satellite information

Favourite Embed

Satellite Type and Status

PAYLOADIN ORBIT

Key statistics

Satellite COSMOS 1574 at a glance.

Uptime

15150

Days in orbit

Revolutions

≈ 13.7

Per day

Orbit

LEO

Low Earth Orbit

Inclination

83.0

Latest

Satellite identification and parameters

Extended collection of information and parameters for COSMOS 1574.

Object identification

Identified? True

Debris? False

Object name: COSMOS 1574

International designator: 1984-062A

Object number (NORAD): 15055

Object ID (CCSDS): 15055

Country: COMMONWEALTH OF INDEPENDENT STATES (CIS)

Current information (Y/N): Y

RCS size: LARGE

Orbital parameters

Period: 104.762 minutes

Inclination: 82.9575 deg

SMA: 7361.454 km

Apoapsis: 1002.817 km

Periapsis: 963.822 km

RAAN: 216.3365 deg

Eccentricy: 0.00264859

Argument of periapsis: 210.7445 deg

Mean anomaly: 261.7145 deg

Mean motion: 13.74539913 rev/day

Mean motion (dot): 0.00000068 rev/day2

B* drag term: 0.000055733035 1/REarth

Two-line elements (TLE)

Creation date: Dec. 12, 2025, 10:14 a.m.

Reference frame: TEME

Reference center: EARTH

Epoch: Dec. 12, 2025, 3:53 a.m. UTC

TLE line 0: 0 COSMOS 1574

TLE line 1: 1 15055U 84062A 25346.16213190 .00000068 00000-0 55733-4 0 9990

TLE line 2: 2 15055 82.9575 216.3365 0026486 210.7445 261.7145 13.74539913 79860

Live tracking on map

Real-time ground track for satellite COSMOS 1574.

In-orbit conjunctions

A list of the most updated potential collisions computed for object COSMOS 1574.

Target Orbit TCA Probability of collision Miss distance Type
COSMOS 249 DEB * LEO 2025-01-31 17:35:09 0.0001677722 878.0 (m) DEBRIS
CZ-6A DEB SSO 2024-06-06 22:01:41 0.0001455021 129.0 (m) DEBRIS

Associated space launch

Civilian navigation satellite equivalent to the purely military Parus

COSMOS 1574 was lifted into orbit during the mission ‘Kosmos-3M | Nadezhda 3’, on board a Kosmos-3M space rocket.

The launch took place on June 21, 1984, 7:40 p.m. from 132/2.

For more information about the launch, click the button.

Launch to space Kosmos-3M | Nadezhda 3
Kosmos-3M | Nadezhda 3

Agency: N/A

Status: Launch Successful

Launch date: June 21, 1984, 7:40 p.m. UTC

Rocket: Kosmos-3M

Launch pad: 132/2

Location: Plesetsk Cosmodrome, Russian Federation

...

Latest news about this satellite

There are no fresh news available about this satellite. Check back as we update our databases every day.


Newsletter sign-up

Weekly statistics, charts and insights to help you stay on top of the space industry.